Location: Degersen
(52.2871°N, 9.5716°E)
Time: 07:05:39
(UTC+00:00)

Cosmos 1954 Rocket - Pass Details

Date: 20 January 2026
Orbit: 747 x 777 km, 74.0° (Epoch: 18 February)

Event Time Altitude Azimuth Distance (km) Brightness Sun altitude
Rises 06:15:04 0° 206° (SSW) 3,181 7.1 -9.6°
Reaches altitude 10° 06:17:25 10° 207° (SSW) 2,262 6.4 -9.2°
Maximum altitude 06:22:33 82° 296° (WNW) 764 3.9 -8.5°
Drops below altitude 10° 06:27:45 10° 24° (NNE) 2,286 6.5 -7.8°
Sets 06:30:07 0° 26° (NNE) 3,218 7.3 -7.4°
